#datetime,building,power
2022-12-17T00:00:00,axn,35.53
2022-12-17T00:01:00,axn,38.84
2022-12-17T00:02:00,axn,38.60
2022-12-17T00:03:00,axn,38.53
2022-12-17T00:04:00,axn,35.60
2022-12-17T00:05:00,axn,35.61
2022-12-17T00:06:00,axn,35.74
2022-12-17T00:07:00,axn,35.84
2022-12-17T00:08:00,axn,35.45
2022-12-17T00:09:00,axn,35.80
2022-12-17T00:10:00,axn,35.48
2022-12-17T00:11:00,axn,35.41
2022-12-17T00:12:00,axn,35.56
2022-12-17T00:13:00,axn,35.32
2022-12-17T00:14:00,axn,35.25
2022-12-17T00:15:00,axn,35.18
2022-12-17T00:16:00,axn,35.08
2022-12-17T00:17:00,axn,35.43
2022-12-17T00:18:00,axn,35.39
2022-12-17T00:19:00,axn,35.21
2022-12-17T00:20:00,axn,35.23
2022-12-17T00:21:00,axn,35.05
2022-12-17T00:22:00,axn,35.31
2022-12-17T00:23:00,axn,35.13
2022-12-17T00:24:00,axn,35.49
2022-12-17T00:25:00,axn,35.37
2022-12-17T00:26:00,axn,35.30
2022-12-17T00:27:00,axn,35.20
2022-12-17T00:28:00,axn,35.37
2022-12-17T00:29:00,axn,39.91
2022-12-17T00:30:00,axn,40.10
2022-12-17T00:31:00,axn,39.75
2022-12-17T00:32:00,axn,39.95
2022-12-17T00:33:00,axn,35.65
2022-12-17T00:34:00,axn,36.89
2022-12-17T00:35:00,axn,37.26
2022-12-17T00:36:00,axn,36.86
2022-12-17T00:37:00,axn,47.26
2022-12-17T00:38:00,axn,47.43
2022-12-17T00:39:00,axn,47.10
2022-12-17T00:40:00,axn,47.17
2022-12-17T00:41:00,axn,37.19
2022-12-17T00:42:00,axn,37.38
2022-12-17T00:43:00,axn,36.78
2022-12-17T00:44:00,axn,36.37
2022-12-17T00:45:00,axn,34.45
2022-12-17T00:46:00,axn,34.62
2022-12-17T00:47:00,axn,34.35
2022-12-17T00:48:00,axn,34.45
2022-12-17T00:49:00,axn,34.81
2022-12-17T00:50:00,axn,34.16
2022-12-17T00:51:00,axn,34.33
2022-12-17T00:52:00,axn,34.91
2022-12-17T00:53:00,axn,34.64
2022-12-17T00:54:00,axn,34.42
2022-12-17T00:55:00,axn,34.36
2022-12-17T00:56:00,axn,42.67
2022-12-17T00:57:00,axn,42.93
2022-12-17T00:58:00,axn,42.67
2022-12-17T00:59:00,axn,42.19
2022-12-17T01:00:00,axn,42.24
2022-12-17T01:01:00,axn,42.02
2022-12-17T01:02:00,axn,38.56
2022-12-17T01:03:00,axn,41.72
2022-12-17T01:04:00,axn,41.93
2022-12-17T01:05:00,axn,41.79
2022-12-17T01:06:00,axn,41.27
2022-12-17T01:07:00,axn,41.86
2022-12-17T01:08:00,axn,41.63
2022-12-17T01:09:00,axn,41.94
2022-12-17T01:10:00,axn,41.58
2022-12-17T01:11:00,axn,41.61
2022-12-17T01:12:00,axn,41.56
2022-12-17T01:13:00,axn,41.48
2022-12-17T01:14:00,axn,41.66
2022-12-17T01:15:00,axn,44.93
2022-12-17T01:16:00,axn,45.18
2022-12-17T01:17:00,axn,58.53
2022-12-17T01:18:00,axn,52.13
2022-12-17T01:19:00,axn,52.32
2022-12-17T01:20:00,axn,52.09
2022-12-17T01:21:00,axn,52.24
2022-12-17T01:22:00,axn,38.01
2022-12-17T01:23:00,axn,38.04
2022-12-17T01:24:00,axn,38.05
2022-12-17T01:25:00,axn,38.07
2022-12-17T01:26:00,axn,38.20
2022-12-17T01:27:00,axn,38.12
2022-12-17T01:28:00,axn,38.19
2022-12-17T01:29:00,axn,38.24
2022-12-17T01:30:00,axn,38.45
2022-12-17T01:31:00,axn,38.38
2022-12-17T01:32:00,axn,38.31
2022-12-17T01:33:00,axn,38.55
2022-12-17T01:34:00,axn,38.67
2022-12-17T01:35:00,axn,38.71
2022-12-17T01:36:00,axn,38.21
2022-12-17T01:37:00,axn,38.67
2022-12-17T01:38:00,axn,38.44
2022-12-17T01:39:00,axn,38.26
2022-12-17T01:40:00,axn,38.46
2022-12-17T01:41:00,axn,38.46
2022-12-17T01:42:00,axn,38.63
2022-12-17T01:43:00,axn,38.48
2022-12-17T01:44:00,axn,38.81
2022-12-17T01:45:00,axn,38.82
2022-12-17T01:46:00,axn,39.42
2022-12-17T01:47:00,axn,38.70
2022-12-17T01:48:00,axn,39.04
2022-12-17T01:49:00,axn,38.92
2022-12-17T01:50:00,axn,40.52
2022-12-17T01:51:00,axn,38.99
2022-12-17T01:52:00,axn,39.34
2022-12-17T01:53:00,axn,38.65
2022-12-17T01:54:00,axn,38.66
2022-12-17T01:55:00,axn,39.04
2022-12-17T01:56:00,axn,38.57
2022-12-17T01:57:00,axn,38.55
2022-12-17T01:58:00,axn,38.72
2022-12-17T01:59:00,axn,38.80
2022-12-17T02:00:00,axn,38.63
2022-12-17T02:01:00,axn,38.70
2022-12-17T02:02:00,axn,39.15
2022-12-17T02:03:00,axn,38.64
2022-12-17T02:04:00,axn,38.51
2022-12-17T02:05:00,axn,38.93
2022-12-17T02:06:00,axn,38.89
2022-12-17T02:07:00,axn,38.90
2022-12-17T02:08:00,axn,39.08
2022-12-17T02:09:00,axn,38.88
2022-12-17T02:10:00,axn,41.59
2022-12-17T02:11:00,axn,33.29
2022-12-17T02:12:00,axn,30.32
2022-12-17T02:13:00,axn,30.23
2022-12-17T02:14:00,axn,30.34
2022-12-17T02:15:00,axn,30.43
2022-12-17T02:16:00,axn,30.36
2022-12-17T02:17:00,axn,30.88
2022-12-17T02:18:00,axn,30.47
2022-12-17T02:19:00,axn,30.32
2022-12-17T02:20:00,axn,30.34
2022-12-17T02:21:00,axn,30.67
2022-12-17T02:22:00,axn,29.98
2022-12-17T02:23:00,axn,29.94
2022-12-17T02:24:00,axn,30.15
2022-12-17T02:25:00,axn,30.14
2022-12-17T02:26:00,axn,30.12
2022-12-17T02:27:00,axn,30.05
2022-12-17T02:28:00,axn,29.89
2022-12-17T02:29:00,axn,29.92
2022-12-17T02:30:00,axn,29.86
2022-12-17T02:31:00,axn,30.14
2022-12-17T02:32:00,axn,30.10
2022-12-17T02:33:00,axn,29.90
2022-12-17T02:34:00,axn,29.80
2022-12-17T02:35:00,axn,29.86
2022-12-17T02:36:00,axn,30.06
2022-12-17T02:37:00,axn,29.69
2022-12-17T02:38:00,axn,29.62
2022-12-17T02:39:00,axn,29.81
2022-12-17T02:40:00,axn,29.77
2022-12-17T02:41:00,axn,29.88
2022-12-17T02:42:00,axn,30.38
2022-12-17T02:43:00,axn,29.80
2022-12-17T02:44:00,axn,30.05
2022-12-17T02:45:00,axn,30.35
2022-12-17T02:46:00,axn,29.95
2022-12-17T02:47:00,axn,29.93
2022-12-17T02:48:00,axn,29.99
2022-12-17T02:49:00,axn,29.82
2022-12-17T02:50:00,axn,29.84
2022-12-17T02:51:00,axn,29.96
2022-12-17T02:52:00,axn,29.63
2022-12-17T02:53:00,axn,29.77
2022-12-17T02:54:00,axn,30.05
2022-12-17T02:55:00,axn,29.81
2022-12-17T02:56:00,axn,30.10
2022-12-17T02:57:00,axn,29.88
2022-12-17T02:58:00,axn,30.07
2022-12-17T02:59:00,axn,32.84
2022-12-17T03:00:00,axn,32.76
2022-12-17T03:01:00,axn,32.81
2022-12-17T03:02:00,axn,29.96
2022-12-17T03:03:00,axn,29.78
2022-12-17T03:04:00,axn,29.84
2022-12-17T03:05:00,axn,29.83
2022-12-17T03:06:00,axn,29.62
2022-12-17T03:07:00,axn,29.85
2022-12-17T03:08:00,axn,29.92
2022-12-17T03:09:00,axn,29.83
2022-12-17T03:10:00,axn,29.73
2022-12-17T03:11:00,axn,30.12
2022-12-17T03:12:00,axn,30.08
2022-12-17T03:13:00,axn,30.47
2022-12-17T03:14:00,axn,29.74
2022-12-17T03:15:00,axn,29.92
2022-12-17T03:16:00,axn,29.82
2022-12-17T03:17:00,axn,31.87
2022-12-17T03:18:00,axn,29.80
2022-12-17T03:19:00,axn,30.12
2022-12-17T03:20:00,axn,29.82
2022-12-17T03:21:00,axn,28.98
2022-12-17T03:22:00,axn,29.14
2022-12-17T03:23:00,axn,29.33
2022-12-17T03:24:00,axn,30.00
2022-12-17T03:25:00,axn,29.68
2022-12-17T03:26:00,axn,29.88
2022-12-17T03:27:00,axn,29.74
2022-12-17T03:28:00,axn,29.55
2022-12-17T03:29:00,axn,29.65
2022-12-17T03:30:00,axn,29.69
2022-12-17T03:31:00,axn,29.52
2022-12-17T03:32:00,axn,29.48
2022-12-17T03:33:00,axn,29.35
2022-12-17T03:34:00,axn,29.41
2022-12-17T03:35:00,axn,29.55
2022-12-17T03:36:00,axn,28.93
2022-12-17T03:37:00,axn,29.44
2022-12-17T03:38:00,axn,28.67
2022-12-17T03:39:00,axn,28.59
2022-12-17T03:40:00,axn,28.51
2022-12-17T03:41:00,axn,28.65
2022-12-17T03:42:00,axn,28.71
2022-12-17T03:43:00,axn,28.74
2022-12-17T03:44:00,axn,28.57
2022-12-17T03:45:00,axn,28.50
2022-12-17T03:46:00,axn,29.16
2022-12-17T03:47:00,axn,28.64
2022-12-17T03:48:00,axn,28.51
2022-12-17T03:49:00,axn,28.34
2022-12-17T03:50:00,axn,28.48
2022-12-17T03:51:00,axn,28.30
2022-12-17T03:52:00,axn,28.24
2022-12-17T03:53:00,axn,28.39
2022-12-17T03:54:00,axn,28.46
2022-12-17T03:55:00,axn,28.79
2022-12-17T03:56:00,axn,29.02
2022-12-17T03:57:00,axn,29.10
2022-12-17T03:58:00,axn,29.30
2022-12-17T03:59:00,axn,28.92
2022-12-17T04:00:00,axn,28.83
2022-12-17T04:01:00,axn,28.91
2022-12-17T04:02:00,axn,28.02
2022-12-17T04:03:00,axn,29.42
2022-12-17T04:04:00,axn,27.87
2022-12-17T04:05:00,axn,27.85
2022-12-17T04:06:00,axn,28.24
2022-12-17T04:07:00,axn,28.09
2022-12-17T04:08:00,axn,27.93
2022-12-17T04:09:00,axn,28.00
2022-12-17T04:10:00,axn,27.98
2022-12-17T04:11:00,axn,28.05
2022-12-17T04:12:00,axn,28.01
2022-12-17T04:13:00,axn,28.02
2022-12-17T04:14:00,axn,28.37
2022-12-17T04:15:00,axn,28.09
2022-12-17T04:16:00,axn,28.00
2022-12-17T04:17:00,axn,28.02
2022-12-17T04:18:00,axn,27.98
2022-12-17T04:19:00,axn,27.88
2022-12-17T04:20:00,axn,28.16
2022-12-17T04:21:00,axn,28.34
2022-12-17T04:22:00,axn,28.55
2022-12-17T04:23:00,axn,28.37
2022-12-17T04:24:00,axn,28.41
2022-12-17T04:25:00,axn,28.45
2022-12-17T04:26:00,axn,28.20
2022-12-17T04:27:00,axn,28.02
2022-12-17T04:28:00,axn,28.06
2022-12-17T04:29:00,axn,27.50
2022-12-17T04:30:00,axn,28.21
2022-12-17T04:31:00,axn,28.25
2022-12-17T04:32:00,axn,28.17
2022-12-17T04:33:00,axn,28.71
2022-12-17T04:34:00,axn,28.29
2022-12-17T04:35:00,axn,28.30
2022-12-17T04:36:00,axn,28.20
2022-12-17T04:37:00,axn,28.08
2022-12-17T04:38:00,axn,38.77
2022-12-17T04:39:00,axn,38.37
2022-12-17T04:40:00,axn,38.29
2022-12-17T04:41:00,axn,38.18
2022-12-17T04:42:00,axn,27.33
2022-12-17T04:43:00,axn,27.26
2022-12-17T04:44:00,axn,36.64
2022-12-17T04:45:00,axn,36.75
2022-12-17T04:46:00,axn,37.05
2022-12-17T04:47:00,axn,37.06
2022-12-17T04:48:00,axn,36.94
2022-12-17T04:49:00,axn,36.35
2022-12-17T04:50:00,axn,36.33
2022-12-17T04:51:00,axn,36.52
2022-12-17T04:52:00,axn,36.38
2022-12-17T04:53:00,axn,36.14
2022-12-17T04:54:00,axn,39.10
2022-12-17T04:55:00,axn,36.30
2022-12-17T04:56:00,axn,35.98
2022-12-17T04:57:00,axn,36.26
2022-12-17T04:58:00,axn,35.74
2022-12-17T04:59:00,axn,36.09
2022-12-17T05:00:00,axn,35.20
2022-12-17T05:01:00,axn,37.77
2022-12-17T05:02:00,axn,38.38
2022-12-17T05:03:00,axn,38.48
2022-12-17T05:04:00,axn,38.24
2022-12-17T05:05:00,axn,37.95
2022-12-17T05:06:00,axn,38.19
2022-12-17T05:07:00,axn,38.07
2022-12-17T05:08:00,axn,37.82
2022-12-17T05:09:00,axn,37.73
2022-12-17T05:10:00,axn,37.95
2022-12-17T05:11:00,axn,37.94
2022-12-17T05:12:00,axn,38.02
2022-12-17T05:13:00,axn,37.99
2022-12-17T05:14:00,axn,38.43
2022-12-17T05:15:00,axn,38.47
2022-12-17T05:16:00,axn,38.27
2022-12-17T05:17:00,axn,38.48
2022-12-17T05:18:00,axn,38.51
2022-12-17T05:19:00,axn,38.03
2022-12-17T05:20:00,axn,37.93
2022-12-17T05:21:00,axn,38.04
2022-12-17T05:22:00,axn,38.14
2022-12-17T05:23:00,axn,38.27
2022-12-17T05:24:00,axn,38.48
2022-12-17T05:25:00,axn,38.79
2022-12-17T05:26:00,axn,38.56
2022-12-17T05:27:00,axn,38.53
2022-12-17T05:28:00,axn,38.58
2022-12-17T05:29:00,axn,38.62
2022-12-17T05:30:00,axn,38.54
2022-12-17T05:31:00,axn,34.22
2022-12-17T05:32:00,axn,29.95
2022-12-17T05:33:00,axn,29.89
2022-12-17T05:34:00,axn,29.86
2022-12-17T05:35:00,axn,30.23
2022-12-17T05:36:00,axn,29.98
2022-12-17T05:37:00,axn,32.60
2022-12-17T05:38:00,axn,32.64
2022-12-17T05:39:00,axn,32.63
2022-12-17T05:40:00,axn,30.17
2022-12-17T05:41:00,axn,29.82
2022-12-17T05:42:00,axn,29.85
2022-12-17T05:43:00,axn,29.66
2022-12-17T05:44:00,axn,29.79
2022-12-17T05:45:00,axn,30.15
2022-12-17T05:46:00,axn,29.78
2022-12-17T05:47:00,axn,29.71
2022-12-17T05:48:00,axn,29.99
2022-12-17T05:49:00,axn,30.31
2022-12-17T05:50:00,axn,29.98
2022-12-17T05:51:00,axn,29.71
2022-12-17T05:52:00,axn,29.85
2022-12-17T05:53:00,axn,29.76
2022-12-17T05:54:00,axn,29.78
2022-12-17T05:55:00,axn,29.72
2022-12-17T05:56:00,axn,29.65
2022-12-17T05:57:00,axn,29.88
2022-12-17T05:58:00,axn,29.64
2022-12-17T05:59:00,axn,29.83
2022-12-17T06:00:00,axn,29.71
2022-12-17T06:01:00,axn,30.15
2022-12-17T06:02:00,axn,29.95
2022-12-17T06:03:00,axn,30.52
2022-12-17T06:04:00,axn,30.14
2022-12-17T06:05:00,axn,30.24
2022-12-17T06:06:00,axn,30.26
2022-12-17T06:07:00,axn,30.40
2022-12-17T06:08:00,axn,30.03
2022-12-17T06:09:00,axn,29.91
2022-12-17T06:10:00,axn,29.79
2022-12-17T06:11:00,axn,29.84
2022-12-17T06:12:00,axn,29.65
2022-12-17T06:13:00,axn,29.54
2022-12-17T06:14:00,axn,29.68
2022-12-17T06:15:00,axn,30.19
2022-12-17T06:16:00,axn,29.61
2022-12-17T06:17:00,axn,30.47
2022-12-17T06:18:00,axn,30.30
2022-12-17T06:19:00,axn,29.76
2022-12-17T06:20:00,axn,30.00
2022-12-17T06:21:00,axn,29.57
2022-12-17T06:22:00,axn,29.64
2022-12-17T06:23:00,axn,29.47
2022-12-17T06:24:00,axn,29.79
2022-12-17T06:25:00,axn,29.93
2022-12-17T06:26:00,axn,29.75
2022-12-17T06:27:00,axn,29.70
2022-12-17T06:28:00,axn,29.75
2022-12-17T06:29:00,axn,29.90
2022-12-17T06:30:00,axn,29.45
2022-12-17T06:31:00,axn,29.50
2022-12-17T06:32:00,axn,29.87
2022-12-17T06:33:00,axn,29.43
2022-12-17T06:34:00,axn,29.58
2022-12-17T06:35:00,axn,29.50
2022-12-17T06:36:00,axn,29.67
2022-12-17T06:37:00,axn,29.68
2022-12-17T06:38:00,axn,29.88
2022-12-17T06:39:00,axn,29.51
2022-12-17T06:40:00,axn,29.64
2022-12-17T06:41:00,axn,29.75
2022-12-17T06:42:00,axn,38.06
2022-12-17T06:43:00,axn,37.65
2022-12-17T06:44:00,axn,38.09
2022-12-17T06:45:00,axn,37.70
2022-12-17T06:46:00,axn,37.71
2022-12-17T06:47:00,axn,37.54
2022-12-17T06:48:00,axn,37.57
2022-12-17T06:49:00,axn,37.79
2022-12-17T06:50:00,axn,37.64
2022-12-17T06:51:00,axn,37.86
2022-12-17T06:52:00,axn,37.82
2022-12-17T06:53:00,axn,37.44
2022-12-17T06:54:00,axn,37.76
2022-12-17T06:55:00,axn,37.54
2022-12-17T06:56:00,axn,37.75
2022-12-17T06:57:00,axn,37.79
2022-12-17T06:58:00,axn,37.90
2022-12-17T06:59:00,axn,38.01
2022-12-17T07:00:00,axn,37.99
2022-12-17T07:01:00,axn,41.57
2022-12-17T07:02:00,axn,42.41
2022-12-17T07:03:00,axn,41.87
2022-12-17T07:04:00,axn,42.44
2022-12-17T07:05:00,axn,42.07
2022-12-17T07:06:00,axn,41.95
2022-12-17T07:07:00,axn,42.15
2022-12-17T07:08:00,axn,45.48
2022-12-17T07:09:00,axn,42.35
2022-12-17T07:10:00,axn,42.41
2022-12-17T07:11:00,axn,42.33
2022-12-17T07:12:00,axn,42.64
2022-12-17T07:13:00,axn,42.30
2022-12-17T07:14:00,axn,43.31
2022-12-17T07:15:00,axn,43.03
2022-12-17T07:16:00,axn,46.24
2022-12-17T07:17:00,axn,45.63
2022-12-17T07:18:00,axn,42.77
2022-12-17T07:19:00,axn,42.56
2022-12-17T07:20:00,axn,42.67
2022-12-17T07:21:00,axn,42.39
2022-12-17T07:22:00,axn,42.60
2022-12-17T07:23:00,axn,42.75
2022-12-17T07:24:00,axn,57.55
2022-12-17T07:25:00,axn,56.82
2022-12-17T07:26:00,axn,56.64
2022-12-17T07:27:00,axn,57.17
2022-12-17T07:28:00,axn,56.88
2022-12-17T07:29:00,axn,56.86
2022-12-17T07:30:00,axn,42.73
2022-12-17T07:31:00,axn,42.75
2022-12-17T07:32:00,axn,42.35
2022-12-17T07:33:00,axn,42.05
2022-12-17T07:34:00,axn,42.09
2022-12-17T07:35:00,axn,41.97
2022-12-17T07:36:00,axn,41.72
2022-12-17T07:37:00,axn,41.70
2022-12-17T07:38:00,axn,41.98
2022-12-17T07:39:00,axn,43.08
2022-12-17T07:40:00,axn,42.29
2022-12-17T07:41:00,axn,42.18
2022-12-17T07:42:00,axn,42.05
2022-12-17T07:43:00,axn,41.57
2022-12-17T07:44:00,axn,41.93
2022-12-17T07:45:00,axn,41.74
2022-12-17T07:46:00,axn,42.02
2022-12-17T07:47:00,axn,41.88
2022-12-17T07:48:00,axn,41.74
2022-12-17T07:49:00,axn,41.79
2022-12-17T07:50:00,axn,41.56
2022-12-17T07:51:00,axn,41.77
2022-12-17T07:52:00,axn,41.97
2022-12-17T07:53:00,axn,41.68
2022-12-17T07:54:00,axn,41.81
2022-12-17T07:55:00,axn,41.45
2022-12-17T07:56:00,axn,41.45
2022-12-17T07:57:00,axn,41.59
2022-12-17T07:58:00,axn,41.65
2022-12-17T07:59:00,axn,41.53
2022-12-17T08:00:00,axn,41.48
2022-12-17T08:01:00,axn,41.04
2022-12-17T08:02:00,axn,40.48
2022-12-17T08:03:00,axn,40.71
2022-12-17T08:04:00,axn,40.84
2022-12-17T08:05:00,axn,41.46
2022-12-17T08:06:00,axn,40.97
2022-12-17T08:07:00,axn,40.71
2022-12-17T08:08:00,axn,40.75
2022-12-17T08:09:00,axn,40.86
2022-12-17T08:10:00,axn,40.85
2022-12-17T08:11:00,axn,41.64
2022-12-17T08:12:00,axn,41.26
2022-12-17T08:13:00,axn,41.32
2022-12-17T08:14:00,axn,41.64
2022-12-17T08:15:00,axn,41.68
2022-12-17T08:16:00,axn,41.45
2022-12-17T08:17:00,axn,41.55
2022-12-17T08:18:00,axn,41.32
2022-12-17T08:19:00,axn,41.21
2022-12-17T08:20:00,axn,41.26
2022-12-17T08:21:00,axn,41.21
2022-12-17T08:22:00,axn,40.99
2022-12-17T08:23:00,axn,40.98
2022-12-17T08:24:00,axn,40.99
2022-12-17T08:25:00,axn,41.19
2022-12-17T08:26:00,axn,41.17
2022-12-17T08:27:00,axn,41.33
2022-12-17T08:28:00,axn,41.30
2022-12-17T08:29:00,axn,41.49
2022-12-17T08:30:00,axn,41.09
2022-12-17T08:31:00,axn,41.09
2022-12-17T08:32:00,axn,40.98
2022-12-17T08:33:00,axn,41.19
2022-12-17T08:34:00,axn,41.32
2022-12-17T08:35:00,axn,41.09
2022-12-17T08:36:00,axn,41.47
2022-12-17T08:37:00,axn,40.97
2022-12-17T08:38:00,axn,41.62
2022-12-17T08:39:00,axn,41.18
2022-12-17T08:40:00,axn,51.32
2022-12-17T08:41:00,axn,51.22
2022-12-17T08:42:00,axn,50.84
2022-12-17T08:43:00,axn,53.76
2022-12-17T08:44:00,axn,44.43
2022-12-17T08:45:00,axn,44.74
2022-12-17T08:46:00,axn,41.74
2022-12-17T08:47:00,axn,41.88
2022-12-17T08:48:00,axn,41.72
2022-12-17T08:49:00,axn,41.21
2022-12-17T08:50:00,axn,41.16
2022-12-17T08:51:00,axn,41.70
2022-12-17T08:52:00,axn,41.78
2022-12-17T08:53:00,axn,41.68
2022-12-17T08:54:00,axn,41.66
2022-12-17T08:55:00,axn,41.80
2022-12-17T08:56:00,axn,42.38
2022-12-17T08:57:00,axn,41.18
2022-12-17T08:58:00,axn,47.50
2022-12-17T08:59:00,axn,47.24
2022-12-17T09:00:00,axn,46.88
2022-12-17T09:01:00,axn,47.57
2022-12-17T09:02:00,axn,35.10
2022-12-17T09:03:00,axn,35.41
2022-12-17T09:04:00,axn,35.62
2022-12-17T09:05:00,axn,34.74
2022-12-17T09:06:00,axn,34.67
2022-12-17T09:07:00,axn,34.69
2022-12-17T09:08:00,axn,40.67
2022-12-17T09:09:00,axn,40.57
2022-12-17T09:10:00,axn,35.63
2022-12-17T09:11:00,axn,35.19
2022-12-17T09:12:00,axn,34.87
2022-12-17T09:13:00,axn,36.05
2022-12-17T09:14:00,axn,34.92
2022-12-17T09:15:00,axn,35.17
2022-12-17T09:16:00,axn,35.13
2022-12-17T09:17:00,axn,34.50
2022-12-17T09:18:00,axn,34.63
2022-12-17T09:19:00,axn,34.01
2022-12-17T09:20:00,axn,33.81
2022-12-17T09:21:00,axn,34.33
2022-12-17T09:22:00,axn,33.69
2022-12-17T09:23:00,axn,33.64
2022-12-17T09:24:00,axn,33.52
2022-12-17T09:25:00,axn,34.21
2022-12-17T09:26:00,axn,33.61
2022-12-17T09:27:00,axn,34.39
2022-12-17T09:28:00,axn,34.25
2022-12-17T09:29:00,axn,36.06
2022-12-17T09:30:00,axn,34.65
2022-12-17T09:31:00,axn,34.32
2022-12-17T09:32:00,axn,34.33
2022-12-17T09:33:00,axn,34.67
2022-12-17T09:34:00,axn,34.85
2022-12-17T09:35:00,axn,34.42
2022-12-17T09:36:00,axn,34.74
2022-12-17T09:37:00,axn,35.54
2022-12-17T09:38:00,axn,35.61
2022-12-17T09:39:00,axn,34.90
2022-12-17T09:40:00,axn,35.19
2022-12-17T09:41:00,axn,35.11
2022-12-17T09:42:00,axn,34.55
2022-12-17T09:43:00,axn,34.33
2022-12-17T09:44:00,axn,34.70
2022-12-17T09:45:00,axn,34.28
2022-12-17T09:46:00,axn,34.19
2022-12-17T09:47:00,axn,34.44
2022-12-17T09:48:00,axn,34.33
2022-12-17T09:49:00,axn,34.32
2022-12-17T09:50:00,axn,35.60
2022-12-17T09:51:00,axn,34.30
2022-12-17T09:52:00,axn,34.48
2022-12-17T09:53:00,axn,34.40
2022-12-17T09:54:00,axn,34.39
2022-12-17T09:55:00,axn,34.16
2022-12-17T09:56:00,axn,34.00
2022-12-17T09:57:00,axn,34.15
2022-12-17T09:58:00,axn,34.13
2022-12-17T09:59:00,axn,33.90
2022-12-17T10:00:00,axn,33.81
2022-12-17T10:01:00,axn,33.90
2022-12-17T10:02:00,axn,33.81
2022-12-17T10:03:00,axn,34.28
2022-12-17T10:04:00,axn,34.04
2022-12-17T10:05:00,axn,33.79
2022-12-17T10:06:00,axn,33.74
2022-12-17T10:07:00,axn,33.61
2022-12-17T10:08:00,axn,36.53
2022-12-17T10:09:00,axn,36.65
2022-12-17T10:10:00,axn,33.41
2022-12-17T10:11:00,axn,33.15
2022-12-17T10:12:00,axn,33.23
2022-12-17T10:13:00,axn,33.09
2022-12-17T10:14:00,axn,33.38
2022-12-17T10:15:00,axn,33.28
2022-12-17T10:16:00,axn,33.55
2022-12-17T10:17:00,axn,33.81
2022-12-17T10:18:00,axn,33.59
2022-12-17T10:19:00,axn,33.74
2022-12-17T10:20:00,axn,33.53
2022-12-17T10:21:00,axn,33.47
2022-12-17T10:22:00,axn,33.99
2022-12-17T10:23:00,axn,33.15
2022-12-17T10:24:00,axn,33.63
2022-12-17T10:25:00,axn,33.33
2022-12-17T10:26:00,axn,33.90
2022-12-17T10:27:00,axn,33.69
2022-12-17T10:28:00,axn,33.97
2022-12-17T10:29:00,axn,33.48
2022-12-17T10:30:00,axn,33.90
2022-12-17T10:31:00,axn,33.77
2022-12-17T10:32:00,axn,33.73
2022-12-17T10:33:00,axn,33.77
2022-12-17T10:34:00,axn,33.80
2022-12-17T10:35:00,axn,34.65
2022-12-17T10:36:00,axn,35.54
2022-12-17T10:37:00,axn,34.02
2022-12-17T10:38:00,axn,34.58
2022-12-17T10:39:00,axn,34.69
2022-12-17T10:40:00,axn,34.36
2022-12-17T10:41:00,axn,34.43
2022-12-17T10:42:00,axn,34.33
2022-12-17T10:43:00,axn,34.39
2022-12-17T10:44:00,axn,34.43
2022-12-17T10:45:00,axn,34.33
2022-12-17T10:46:00,axn,34.49
2022-12-17T10:47:00,axn,34.62
2022-12-17T10:48:00,axn,34.52
2022-12-17T10:49:00,axn,34.61
2022-12-17T10:50:00,axn,34.79
2022-12-17T10:51:00,axn,34.16
2022-12-17T10:52:00,axn,34.34
2022-12-17T10:53:00,axn,34.66
2022-12-17T10:54:00,axn,34.40
2022-12-17T10:55:00,axn,34.86
2022-12-17T10:56:00,axn,38.07
2022-12-17T10:57:00,axn,37.88
2022-12-17T10:58:00,axn,35.54
2022-12-17T10:59:00,axn,35.43
2022-12-17T11:00:00,axn,35.38
2022-12-17T11:01:00,axn,35.30
2022-12-17T11:02:00,axn,35.49
2022-12-17T11:03:00,axn,35.50
2022-12-17T11:04:00,axn,35.69
2022-12-17T11:05:00,axn,35.79
2022-12-17T11:06:00,axn,36.38
2022-12-17T11:07:00,axn,35.94
2022-12-17T11:08:00,axn,36.09
2022-12-17T11:09:00,axn,36.43
2022-12-17T11:10:00,axn,35.64
2022-12-17T11:11:00,axn,35.87
2022-12-17T11:12:00,axn,35.80
2022-12-17T11:13:00,axn,35.86
2022-12-17T11:14:00,axn,35.86
2022-12-17T11:15:00,axn,35.90
2022-12-17T11:16:00,axn,35.91
2022-12-17T11:17:00,axn,36.08
2022-12-17T11:18:00,axn,36.12
2022-12-17T11:19:00,axn,36.09
2022-12-17T11:20:00,axn,35.92
2022-12-17T11:21:00,axn,36.33
2022-12-17T11:22:00,axn,36.52
2022-12-17T11:23:00,axn,36.07
2022-12-17T11:24:00,axn,35.93
2022-12-17T11:25:00,axn,35.86
2022-12-17T11:26:00,axn,35.71
2022-12-17T11:27:00,axn,35.84
2022-12-17T11:28:00,axn,35.91
2022-12-17T11:29:00,axn,35.74
2022-12-17T11:30:00,axn,35.89
2022-12-17T11:31:00,axn,35.87
2022-12-17T11:32:00,axn,35.74
2022-12-17T11:33:00,axn,35.95
2022-12-17T11:34:00,axn,36.12
2022-12-17T11:35:00,axn,36.21
2022-12-17T11:36:00,axn,36.18
2022-12-17T11:37:00,axn,35.61
2022-12-17T11:38:00,axn,35.72
2022-12-17T11:39:00,axn,35.34
2022-12-17T11:40:00,axn,35.49
2022-12-17T11:41:00,axn,35.63
2022-12-17T11:42:00,axn,35.48
2022-12-17T11:43:00,axn,35.66
2022-12-17T11:44:00,axn,36.27
2022-12-17T11:45:00,axn,35.69
2022-12-17T11:46:00,axn,37.72
2022-12-17T11:47:00,axn,35.95
2022-12-17T11:48:00,axn,35.99
2022-12-17T11:49:00,axn,35.63
2022-12-17T11:50:00,axn,35.75
2022-12-17T11:51:00,axn,35.62
2022-12-17T11:52:00,axn,35.60
2022-12-17T11:53:00,axn,35.60
2022-12-17T11:54:00,axn,35.49
2022-12-17T11:55:00,axn,35.89
2022-12-17T11:56:00,axn,35.10
2022-12-17T11:57:00,axn,35.47
2022-12-17T11:58:00,axn,35.10
2022-12-17T11:59:00,axn,35.40
2022-12-17T12:00:00,axn,35.32
2022-12-17T12:01:00,axn,35.76
2022-12-17T12:02:00,axn,34.92
2022-12-17T12:03:00,axn,34.84
2022-12-17T12:04:00,axn,54.76
2022-12-17T12:05:00,axn,49.39
2022-12-17T12:06:00,axn,48.95
2022-12-17T12:07:00,axn,50.23
2022-12-17T12:08:00,axn,49.13
2022-12-17T12:09:00,axn,48.92
2022-12-17T12:10:00,axn,48.84
2022-12-17T12:11:00,axn,35.11
2022-12-17T12:12:00,axn,34.85
2022-12-17T12:13:00,axn,34.97
2022-12-17T12:14:00,axn,35.05
2022-12-17T12:15:00,axn,35.01
2022-12-17T12:16:00,axn,35.17
2022-12-17T12:17:00,axn,35.12
2022-12-17T12:18:00,axn,35.01
2022-12-17T12:19:00,axn,37.73
2022-12-17T12:20:00,axn,37.69
2022-12-17T12:21:00,axn,34.84
2022-12-17T12:22:00,axn,34.98
2022-12-17T12:23:00,axn,34.73
2022-12-17T12:24:00,axn,34.81
2022-12-17T12:25:00,axn,34.88
2022-12-17T12:26:00,axn,34.80
2022-12-17T12:27:00,axn,34.98
2022-12-17T12:28:00,axn,35.17
2022-12-17T12:29:00,axn,34.81
2022-12-17T12:30:00,axn,34.90
2022-12-17T12:31:00,axn,35.43
2022-12-17T12:32:00,axn,35.86
2022-12-17T12:33:00,axn,35.56
2022-12-17T12:34:00,axn,35.67
2022-12-17T12:35:00,axn,35.85
2022-12-17T12:36:00,axn,35.39
2022-12-17T12:37:00,axn,35.23
2022-12-17T12:38:00,axn,35.42
2022-12-17T12:39:00,axn,35.42
2022-12-17T12:40:00,axn,35.59
2022-12-17T12:41:00,axn,35.24
2022-12-17T12:42:00,axn,35.37
2022-12-17T12:43:00,axn,35.13
2022-12-17T12:44:00,axn,35.03
2022-12-17T12:45:00,axn,35.30
2022-12-17T12:46:00,axn,45.42
2022-12-17T12:47:00,axn,45.69
2022-12-17T12:48:00,axn,45.32
2022-12-17T12:49:00,axn,45.27
2022-12-17T12:50:00,axn,35.31
2022-12-17T12:51:00,axn,35.48
2022-12-17T12:52:00,axn,35.49
2022-12-17T12:53:00,axn,35.93
2022-12-17T12:54:00,axn,35.55
2022-12-17T12:55:00,axn,35.71
2022-12-17T12:56:00,axn,36.48
2022-12-17T12:57:00,axn,35.73
2022-12-17T12:58:00,axn,36.11
2022-12-17T12:59:00,axn,36.15
2022-12-17T13:00:00,axn,35.77
2022-12-17T13:01:00,axn,35.24
2022-12-17T13:02:00,axn,35.32
2022-12-17T13:03:00,axn,35.75
2022-12-17T13:04:00,axn,35.57
2022-12-17T13:05:00,axn,35.78
2022-12-17T13:06:00,axn,36.19
2022-12-17T13:07:00,axn,36.97
2022-12-17T13:08:00,axn,48.29
2022-12-17T13:09:00,axn,37.16
2022-12-17T13:10:00,axn,38.57
2022-12-17T13:11:00,axn,36.52
2022-12-17T13:12:00,axn,38.91
2022-12-17T13:13:00,axn,38.40
2022-12-17T13:14:00,axn,37.57
2022-12-17T13:15:00,axn,37.65
2022-12-17T13:16:00,axn,37.44
2022-12-17T13:17:00,axn,37.76
2022-12-17T13:18:00,axn,37.57